Vorticity
5 4 4 5 5 5 -0 8 8 6 6 4 3 3 4 2 2 4 2 4 5 4 3 4 2 4 2 5 4 6 8 5 8 6 6 8 3 3 4 3 4 5 2
4 3 6 6 10 7 0 5 4 3 10 7 8 5 6 5 2 2 2 3 4 4 3 2 4 5 3 5 3 5 5 6 7 7 6 8 4 6 7 7 5 5 5
6 6 4 4 4 5 4 4 5 9 3 5 9 8 5 4 3 3 3 3 3 3 4 3 3 4 4 5 4 7 6 4 8 6 6 9 6 5 6 4 5 5 4
8 5 8 9 7 5 2 3 4 9 12 1 1 5 8 9 5 3 3 3 3 4 3 4 7 5 2 4 5 7 5 3 6 5 6 6 7 6 8 8 5 4 5
6 6 7 8 6 6 4 8 2 3 3 8 8 3 3 3 5 8 5 4 5 4 4 3 3 5 5 3 6 5 5 4 5 6 4 5 5 6 7 6 7 5 6
4 8 12 15 12 12 -2 3 6 6 4 3 5 7 4 3 4 7 6 5 4 5 4 4 3 3 3 5 7 5 6 5 5 5 5 5 4 4 7 6 7 7 5
5 7 2 2 3 7 9 10 3 4 5 2 4 5 7 5 3 2 4 7 7 7 5 4 4 4 4 2 6 6 4 4 4 4 4 5 6 5 5 6 6 6 7
5 7 8 9 5 4 3 5 12 11 7 3 4 3 4 5 3 4 4 5 5 6 5 7 5 6 4 3 4 6 4 4 5 5 4 4 6 7 5 5 5 7 4
4 5 5 5 7 7 5 11 3 0 9 12 5 5 3 4 5 5 4 4 4 3 5 5 5 5 5 5 5 3 4 3 3 4 4 4 4 7 6 7 6 6 8
7 7 6 5 4 4 4 6 5 13 1 1 5 8 7 7 8 6 5 6 10 8 5 5 4 5 6 4 4 4 4 2 3 2 1 2 5 9 6 8 7 6 6
4 4 4 5 5 5 6 6 5 5 8 9 8 1 -1 5 7 6 7 5 5 5 7 5 5 5 5 5 5 5 4 3 3 2 2 5 5 10 7 9 8 6 7
4 3 3 3 2 2 2 3 4 5 7 6 5 8 12 1 2 5 9 7 -1 2 14 8 7 5 6 5 4 5 4 3 4 5 3 5 3 7 8 5 11 6 5
3 4 4 3 3 3 3 3 3 2 2 2 4 8 6 6 8 5 -3 6 9 2 3 22 5 7 5 5 5 4 4 7 2 -0 1 6 8 5 9 7 12 9 5
3 3 3 3 4 4 4 4 4 4 3 2 2 2 3 7 6 4 8 5 -2 -1 -2 -14 13 5 8 4 5 6 3 6 15 11 5 6 7 3 8 6 11 14 5
5 5 5 5 5 5 5 4 3 3 3 3 4 5 2 2 3 7 7 4 12 2 -1 3 9 4 5 5 4 4 6 0 -3 -1 2 5 4 6 9 4 12 13 7
6 6 6 6 6 6 6 5 5 5 5 5 5 4 3 5 4 2 3 6 6 5 9 4 9 15 21 7 6 4 4 6 3 2 4 3 4 6 6 5 10 14 10
6 6 6 7 6 6 6 6 6 6 6 6 6 8 6 7 4 4 3 1 4 8 6 1 7 -2 14 10 3 3 5 4 6 5 4 3 4 5 3 9 6 15 13
7 7 7 9 11 12 13 12 11 10 7 5 4 5 6 6 7 7 4 5 2 1 5 7 7 5 6 7 3 4 9 5 5 5 5 4 4 5 5 5 3 17 9
5 4 3 4 5 5 4 3 4 4 4 4 5 8 11 5 7 5 7 7 4 3 1 3 5 5 3 26 -3 3 2 5 6 5 5 5 4 3 7 5 3 17 10
6 6 4 1 -2 -3 -4 -5 -4 -1 5 1 -6 7 14 11 12 6 9 5 8 5 5 2 3 5 8 1 27 -2 -3 5 5 4 4 5 7 4 2 4 4 13 11
6 6 6 7 10 10 9 4 -0 5 9 3 -3 3 5 3 2 9 11 9 7 7 7 4 2 4 4 7 -0 17 7 6 7 5 3 5 7 7 5 5 5 7 12
6 7 8 8 8 8 8 1 4 4 1 3 9 4 6 12 14 13 10 9 2 11 5 7 5 2 2 6 5 3 5 7 9 10 7 4 7 8 8 4 7 5 10
4 6 6 8 7 7 4 -1 6 6 8 9 13 17 21 24 22 21 21 18 11 5 10 4 8 5 3 2 6 5 4 5 6 8 8 6 5 7 7 10 5 6 7
2 1 4 5 9 6 5 5 8 10 15 23 24 23 21 21 22 22 23 25 17 12 6 9 5 8 6 2 4 6 5 4 4 5 8 8 7 6 8 8 4 8 7
4 2 3 7 5 4 6 10 14 18 22 21 19 22 25 24 22 21 22 23 27 15 10 4 6 7 6 4 3 3 6 5 3 2 6 6 7 7 7 10 11 3 8
2 3 5 6 5 6 11 18 21 21 20 22 27 28 26 26 24 27 27 25 24 24 21 13 6 8 7 5 4 3 5 5 4 4 3 3 6 5 6 7 6 10 7
Height
5847 5847 5849 5850 5851 5852 5853 5854 5857 5859 5861 5861 5860 5861 5863 5864 5864 5866 5867 5869 5869 5869 5870 5871 5871 5871 5871 5869 5869 5869 5868 5867 5867 5868 5868 5868 5868 5869 5869 5870 5871 5872 5873
5845 5846 5847 5848 5849 5850 5851 5852 5853 5855 5858 5859 5859 5859 5860 5861 5861 5863 5864 5866 5867 5868 5868 5869 5870 5870 5869 5870 5870 5868 5867 5867 5866 5865 5866 5866 5867 5868 5869 5870 5870 5871 5873
5843 5844 5845 5846 5847 5848 5849 5850 5851 5852 5854 5856 5857 5859 5860 5861 5861 5861 5862 5863 5863 5865 5866 5867 5867 5868 5868 5867 5867 5867 5867 5867 5866 5865 5865 5866 5866 5868 5868 5867 5868 5870 5872
5840 5841 5842 5844 5845 5845 5846 5848 5849 5849 5850 5852 5853 5855 5858 5859 5860 5861 5861 5862 5862 5863 5863 5865 5865 5865 5865 5865 5865 5865 5865 5864 5865 5865 5865 5866 5866 5867 5867 5867 5868 5869 5870
5837 5838 5839 5841 5842 5842 5843 5844 5845 5847 5848 5848 5849 5850 5852 5854 5856 5858 5859 5860 5861 5862 5862 5862 5863 5863 5863 5863 5863 5863 5863 5863 5864 5864 5865 5866 5865 5866 5866 5867 5866 5867 5867
5834 5835 5835 5837 5838 5839 5840 5841 5842 5843 5845 5846 5846 5847 5848 5849 5850 5853 5855 5857 5858 5859 5859 5860 5859 5860 5860 5861 5860 5861 5861 5861 5861 5862 5862 5863 5864 5864 5865 5864 5864 5865 5865
5831 5832 5833 5833 5835 5836 5837 5838 5838 5839 5841 5842 5844 5844 5844 5844 5845 5847 5849 5851 5854 5855 5856 5856 5856 5857 5857 5857 5858 5858 5859 5859 5860 5862 5861 5861 5861 5862 5861 5862 5863 5863 5863
5827 5828 5829 5830 5831 5832 5833 5834 5834 5835 5836 5838 5839 5840 5841 5841 5842 5843 5843 5845 5847 5850 5852 5852 5853 5854 5854 5853 5853 5855 5856 5857 5858 5859 5858 5858 5858 5859 5859 5859 5860 5861 5861
5823 5824 5825 5826 5827 5828 5829 5829 5830 5831 5831 5832 5834 5835 5837 5838 5839 5839 5840 5842 5842 5844 5846 5847 5848 5849 5850 5850 5850 5851 5853 5854 5854 5855 5855 5856 5856 5856 5855 5855 5857 5858 5858
5819 5820 5821 5821 5822 5823 5824 5825 5825 5826 5827 5827 5829 5830 5831 5833 5834 5834 5835 5837 5839 5839 5841 5842 5843 5844 5845 5846 5846 5847 5848 5849 5850 5851 5852 5853 5852 5852 5851 5852 5853 5854 5856
5815 5816 5817 5817 5817 5818 5819 5820 5820 5821 5821 5822 5823 5824 5825 5826 5828 5829 5830 5831 5832 5833 5834 5836 5837 5839 5839 5841 5841 5842 5843 5844 5845 5846 5848 5847 5848 5849 5848 5848 5848 5850 5852
5810 5811 5811 5811 5812 5812 5813 5814 5815 5815 5816 5817 5817 5817 5819 5820 5821 5822 5824 5825 5827 5828 5828 5830 5831 5833 5833 5835 5836 5836 5837 5839 5841 5841 5843 5843 5844 5844 5844 5844 5844 5845 5847
5804 5804 5805 5805 5805 5805 5806 5807 5808 5808 5809 5809 5810 5811 5812 5814 5815 5816 5817 5818 5819 5820 5821 5822 5824 5826 5827 5828 5829 5830 5832 5833 5834 5836 5837 5837 5839 5839 5839 5840 5840 5841 5842
5796 5796 5796 5797 5797 5797 5797 5798 5799 5800 5801 5801 5802 5803 5804 5806 5807 5808 5809 5811 5811 5811 5814 5814 5817 5819 5820 5821 5822 5824 5826 5827 5828 5830 5831 5832 5833 5833 5835 5835 5835 5836 5837
5788 5788 5788 5788 5788 5789 5789 5789 5789 5789 5790 5791 5792 5793 5794 5795 5797 5799 5800 5801 5802 5802 5803 5807 5808 5811 5814 5815 5815 5817 5819 5820 5821 5824 5825 5825 5827 5828 5829 5830 5829 5830 5831
5781 5781 5781 5780 5779 5779 5779 5779 5778 5779 5779 5780 5780 5782 5783 5784 5786 5787 5789 5791 5792 5794 5795 5796 5799 5801 5804 5807 5808 5809 5811 5814 5815 5816 5819 5819 5821 5822 5823 5824 5824 5824 5826
5773 5772 5771 5770 5770 5769 5769 5768 5768 5767 5766 5766 5767 5769 5771 5772 5773 5775 5776 5778 5781 5784 5786 5787 5789 5792 5794 5796 5799 5802 5804 5805 5807 5810 5811 5812 5815 5816 5816 5818 5817 5818 5821
5764 5763 5763 5762 5760 5759 5758 5757 5755 5755 5754 5753 5753 5754 5754 5757 5759 5760 5762 5764 5767 5770 5774 5776 5777 5780 5783 5785 5788 5791 5793 5796 5798 5801 5802 5806 5808 5809 5809 5812 5812 5813 5814
5754 5753 5751 5750 5748 5746 5744 5743 5741 5740 5739 5738 5738 5737 5738 5738 5740 5743 5745 5748 5752 5755 5758 5762 5765 5767 5771 5774 5777 5780 5783 5787 5790 5792 5794 5798 5801 5802 5802 5804 5806 5808 5809
5743 5741 5739 5737 5735 5732 5729 5726 5723 5721 5719 5719 5718 5717 5717 5717 5720 5723 5726 5728 5733 5738 5741 5744 5750 5753 5757 5761 5765 5769 5773 5776 5780 5783 5786 5788 5792 5795 5797 5797 5799 5801 5805
5728 5725 5722 5719 5715 5712 5709 5705 5701 5698 5694 5692 5692 5693 5694 5694 5697 5700 5702 5706 5712 5718 5722 5726 5731 5737 5742 5747 5752 5756 5760 5765 5769 5773 5776 5779 5783 5787 5789 5790 5793 5794 5797
5709 5705 5702 5698 5694 5689 5685 5681 5678 5675 5671 5667 5664 5661 5660 5662 5665 5670 5675 5681 5686 5694 5700 5706 5712 5717 5724 5732 5738 5742 5746 5753 5758 5762 5766 5769 5773 5777 5781 5783 5785 5787 5790
5690 5686 5682 5678 5673 5668 5664 5659 5653 5647 5642 5637 5632 5630 5627 5627 5628 5634 5641 5648 5656 5666 5674 5682 5689 5696 5705 5714 5722 5727 5734 5740 5745 5749 5754 5757 5762 5767 5771 5775 5777 5779 5781
5671 5665 5660 5656 5651 5646 5641 5634 5627 5619 5612 5605 5601 5596 5595 5593 5595 5597 5604 5613 5622 5633 5645 5654 5664 5674 5682 5694 5703 5711 5717 5725 5732 5737 5741 5746 5751 5756 5761 5765 5769 5771 5773
5653 5647 5641 5636 5629 5622 5615 5607 5599 5591 5583 5577 5571 5568 5563 5561 5561 5563 5569 5577 5586 5595 5609 5623 5635 5649 5659 5671 5684 5692 5701 5708 5717 5724 5729 5735 5739 5745 5750 5754 5760 5762 5765
5636 5629 5622 5615 5608 5599 5589 5580 5572 5565 5559 5551 5544 5539 5536 5532 5530 5531 5536 5543 5552 5562 5573 5587 5603 5620 5634 5647 5661 5673 5683 5691 5702 5710 5716 5721 5727 5733 5738 5743 5749 5753 5757